Hourly Data Report for September 26, 2019

All times are specified in Local Standard Time (LST). Add 1 hour to adjust for Daylight Saving Time where and when it is observed.

EUREKA CLIMATE
NUNAVUT
Current Station Operator: ECCC - MSC

79°59'21.000" N
85°56'02.000" W
10.00 m
2401199
71613
NEK

Download Data

Hourly Data (September 2019)
Hourly Data Report for September 26, 2019
TIME Temp Definition
°C
Dew Point Definition
°C
Rel Hum Definition
%
Wind Dir Definition
10's deg

Wind Spd Definition
km/h
Visibility Definition
km
Stn Press Definition
kPa
Hmdx Definition


Wind Chill Definition


Weather Definition


00:00 -7.0 -11.5 70 12 27   100.93   -15 LegendNANA
01:00 -8.1 -12.2 72 12 15   100.92   -14 LegendNANA
02:00 -9.7 -12.9 77 30 9   100.91   -15 LegendNANA
03:00 -9.7 -12.9 78 32 4   100.87   -12 LegendNANA
04:00 -9.1 -12.3 78 1 4   100.84   -11 LegendNANA
05:00 -8.0 -11.1 78 1 8   100.75   -12 LegendNANA
06:00 -5.8 -9.9 73 28 6   100.70   -9 LegendNANA
07:00 -5.5 -8.2 81 36 9   100.64   -10 LegendNANA
08:00 -5.4 -8.2 80 2 6   100.58   -8 LegendNANA
09:00 -4.9 -7.5 82 36 7   100.51   -8 LegendNANA
10:00 -4.2 -7.6 78 36 3   100.46   -5 LegendNANA
11:00 -3.9 -6.9 80 1 8   100.39   -7 LegendNANA
12:00 -3.4 -6.0 82 36 8   100.35   -7 LegendNANA
13:00 -4.0 -6.1 86 28 14   100.35   -9 LegendNANA
14:00 -3.8 -5.7 86 28 11   100.32   -8 LegendNANA
15:00 -3.8 -5.1 91 30 11   100.29   -8 LegendNANA
16:00 -4.2 -4.7 96 30 12   100.27   -9 LegendNANA
17:00 -4.1 -4.6 96 29 11   100.26   -9 LegendNANA
18:00 -4.0 -4.4 97 30 7   100.24   -7 LegendNANA
19:00 -3.6 -3.8 98 31 6   100.22   -6 LegendNANA
20:00 -2.0 -2.2 99 36 7   100.21   -5 LegendNANA
21:00 -1.5 -1.7 98 2 10   100.21   -5 LegendNANA
22:00 -2.8 -2.9 99 32 5   100.20   -5 LegendNANA
23:00 -1.4 -1.5 99 1 8   100.21   -4 LegendNANA

Notes on Data Quality.

Legend

  • E = Estimated
  • M = Missing
  • NA = Not Available
Date modified: